GFSGBSN_prec_radar_024.txt.gz
Reflectivity
-20 -20 -20 -20 -20 -20 -20 -20 -1 -13 -11 -20 -20 -20 -20 -20 -20 -20 -20 -20 -9 -3 -20 -20 -20 -20 -20 -20 -20 -20 -20 -20 -20 -20 -20 -20 -20 -20 -20 -20 -20 -20 -20 -20 -20 -20 -20
-20 -20 -20 -20 -20 -20 -20 -20 -20 -20 -19 10 -20 -20 -20 -20 -20 -20 -20 -20 -20 -20 -20 -20 -20 -20 -20 -20 -20 -20 -20 -20 -20 -20 -20 -20 -20 -20 -20 -20 -20 -20 -20 -20 -20 -7 -20
-2 -20 -20 -20 -20 -20 -20 -20 -20 -20 -2 -20 -18 -20 -20 -20 -20 -20 -20 -20 -20 -20 -20 -20 -20 -20 -20 -20 -20 -20 -20 -20 -20 -20 -20 -20 -20 -20 -20 -20 -20 -20 -17 -20 -18 -5 -20
-20 -3 -20 -20 -19 -20 -20 -20 -20 -20 -20 -20 -20 -20 -20 -20 -20 -20 -20 -20 -20 -20 -20 -20 -20 -20 -20 -20 -20 -20 -20 -20 -20 -20 -20 -20 -20 -20 -20 -20 -20 -20 -20 -20 -20 -20 -20
-19 -20 1 -17 -20 -10 6 9 -17 -20 -18 -14 -3 -10 -20 -20 -20 -20 -20 -20 -20 -20 -20 -20 -20 -20 -20 -20 -20 -20 -20 -20 -20 -20 -20 -20 -20 -20 -20 -20 -20 -20 -20 -20 -20 -20 -14
2 -20 -18 -0 -2 -20 -20 1 17 5 -2 -2 -11 -9 -20 -20 -20 -20 -20 -20 -20 -20 -20 -20 -20 -20 -20 -20 -20 -20 -20 -20 -20 -20 -20 -20 -20 -20 -20 -20 -20 -20 -20 -20 -20 -17 -20
10 11 2 -16 2 -20 -20 -20 2 11 3 -13 -9 8 -20 -20 -20 -9 -20 -20 -20 -20 -20 -20 -20 -20 -20 -20 -20 -20 -20 -20 -20 -20 -20 -20 -20 -20 -20 -20 -20 8 -19 -15 -20 -20 -20
11 12 9 2 -2 15 -4 -20 -20 -11 8 6 2 -10 12 -19 -20 -20 -20 -20 -20 -20 -20 -20 -20 -20 -20 -20 -20 -20 -20 -20 -20 -20 -20 -20 -20 -20 -12 -10 -19 -11 -20 -20 -20 -20 -20
14 13 14 11 11 1 9 6 -20 -20 -15 3 -16 11 2 8 11 8 -14 -20 -20 -20 -20 -20 -20 -20 -20 -20 -20 -20 -20 -20 -20 -20 -20 -20 -20 -20 -12 -3 -20 -20 -20 -20 -20 -20 -20
16 -7 12 15 11 -12 -5 8 -5 -20 -20 -20 -17 -20 13 10 10 3 -20 -20 -20 -20 -20 -20 -20 -20 -20 -20 -20 -20 -20 -20 -20 -20 -20 -20 -20 -20 -15 -20 -20 -20 -20 -20 -20 -20 -20
25 19 7 13 15 10 -6 2 7 -3 -12 -20 -20 2 6 12 9 5 -19 -20 -20 -20 -20 -20 -20 -20 -20 -20 -20 -20 -20 -20 -20 -20 -20 -20 -20 -20 3 -20 -20 -20 -20 -20 -20 -20 -20
17 17 21 8 -4 13 12 7 -5 5 3 -20 -17 13 -5 9 15 7 -19 -20 -20 -20 -20 -20 -20 -20 -20 -20 -20 -20 -20 -20 -20 -20 -20 -20 -20 -20 -6 -20 -20 -20 -20 -20 -20 -20 -20
-16 1 15 19 4 -20 12 15 -8 9 9 -20 -10 15 3 -1 9 -1 -20 0 -16 -20 -20 -20 -20 -20 -20 -20 -20 -20 -20 -20 -20 -20 -20 -20 -20 -20 -20 -20 -20 -20 -20 -20 -20 -20 -20
-20 24 19 20 15 9 -20 12 13 12 11 -16 -18 5 14 6 9 -9 -20 13 -18 -20 -20 -20 -20 -20 -20 -20 -20 -20 -20 -20 -20 -20 -20 -20 -20 -20 -20 -20 -20 -20 -20 -20 -20 -20 -20
-20 3 20 14 22 15 -5 7 11 11 6 13 14 3 19 -8 8 -8 -20 12 -20 -20 -20 -20 -20 -20 -20 -20 -20 -20 -20 -20 -20 -20 -20 -20 -20 -20 -20 -20 -20 -20 -20 -20 -20 -20 -20
-20 -20 -3 4 24 19 14 -20 8 16 10 13 12 13 11 2 6 -19 8 -20 -20 -20 -20 -20 -20 -20 -20 -20 -20 -20 -20 -20 -20 -20 -20 -20 -20 -20 -20 -20 -20 -20 -20 -20 -20 -20 -20
-2 3 -4 -12 15 15 19 -5 -20 14 12 14 19 23 2 4 15 3 -12 -4 -20 -11 -20 -20 -20 -20 -20 -20 -20 -20 -20 -20 -20 -20 -20 -20 -20 -20 -20 -20 -20 -20 -20 -20 -20 -20 -20
1 2 8 -19 -20 18 9 10 -20 6 17 19 20 19 4 -8 18 -9 4 -20 -20 4 -20 -20 -20 -20 -20 -20 -20 -20 -20 -20 -20 -20 -20 -20 -20 -20 -20 -20 -19 -20 -20 -20 -20 -20 -20
-6 -1 4 12 -20 29 8 10 8 -4 24 -9 19 15 18 -20 15 -20 -17 -4 -20 -7 -20 -20 -20 -20 -20 -20 -20 -20 -20 -20 -20 -20 -20 -20 -20 -20 -12 -20 -20 -20 -20 -20 -20 -20 -20
17 -1 5 11 15 26 13 -1 2 6 19 13 18 19 22 15 -20 -20 -20 -20 -20 -20 -20 -20 -20 -20 -20 -20 -20 -20 -20 -20 -20 -20 -10 -15 -20 -20 -20 -20 -20 -20 -20 -20 -20 -20 -20
24 3 4 17 13 24 -3 -20 -13 17 18 15 20 7 4 12 -20 -20 -20 -20 -20 -20 -20 -20 -20 -20 -20 -20 -20 -20 -20 -20 -20 -20 -9 -20 -20 -20 -20 -20 -20 -20 -20 -20 -20 -20 -20
21 5 6 7 -20 10 -20 -20 4 26 26 21 21 14 9 -20 -20 -20 -20 -20 -20 -20 -20 -20 -20 -20 -20 -20 -20 -20 -20 -20 -20 -20 -20 -20 -20 -20 -20 -20 -20 -20 -20 -20 -20 -20 -20
24 12 7 4 -2 -20 -20 -20 -10 18 34 29 22 -4 16 -20 -19 -20 -20 -20 -20 -20 -20 -20 -20 -20 -20 -20 -20 -20 -20 -20 -8 -20 -20 -20 -20 -20 -20 -20 -20 -20 -20 -20 -20 -20 -20
22 8 8 7 10 -17 -18 -18 -9 9 36 29 24 23 22 -19 5 -20 -20 -20 -20 -20 -20 -20 -20 -20 -20 -20 -20 -20 -20 -20 -10 -20 -20 -20 -20 -20 -20 -20 -20 -20 -20 -20 -20 -20 -20
10 7 7 -11 -20 -20 7 -18 15 11 29 24 26 23 15 -1 10 4 -20 -20 -20 -20 -20 -20 -20 -20 -20 -20 -20 -20 15 16 -14 -20 -20 -20 -2 -20 -20 -20 -20 -20 -20 -20 -20 -20 -20
-20 -4 9 -20 -20 -20 -20 -20 -9 -20 14 6 33 27 22 16 -19 -9 -20 -20 -20 -20 -20 -20 -20 -18 -8 -20 -18 -20 -20 -20 -20 -20 -20 -18 2 9 -20 -20 -20 -20 -20 -20 -20 -20 -20
-3 5 -5 -0 8 -0 -11 11 -6 -20 6 9 30 33 15 23 14 -20 -6 -20 -20 -20 -20 -20 -20 -20 -20 -16 -20 -20 -20 -20 -20 -20 -20 -20 -20 -20 -20 -20 -20 -20 -20 -20 -20 -20 -20
5 6 11 10 -1 -2 -20 4 3 -10 12 13 13 31 21 29 -1 3 -20 -20 -20 -20 -20 -20 6 -20 24 -20 -7 -20 -20 -20 -20 -20 -20 -20 -20 -20 -20 -20 -20 -20 -20 -20 -20 -20 -20
-15 3 -6 12 7 12 -20 -7 8 23 23 15 22 12 34 36 9 14 -20 -20 -20 -20 -20 -20 7 -19 -20 -15 -8 -20 -20 -20 -20 -20 -20 -20 -20 -20 -20 -20 -20 -20 -20 -20 -20 -20 -20

GFSGBSN_prec_radar_030.txt.gz
Reflectivity
11 5 16 8 1 -2 -20 -20 -20 -20 -20 12 11 -14 -11 -20 -20 -20 -20 -20 -20 -20 -20 -20 -20 -20 -20 -20 -20 -20 -20 -20 -20 -20 -20 -20 -20 -20 -20 -20 -20 -20 -20 -20 -20 -20 -20
16 15 4 11 9 -15 -20 -20 -20 -20 -20 -20 -20 -5 -20 -20 -20 -20 -20 -20 -20 -20 -20 -20 -20 -20 -17 -20 -20 -20 -20 -20 -20 -20 -20 -20 -20 -20 -20 -20 -20 -20 -20 -20 -20 -16 -20
17 12 14 2 -2 7 1 -3 -5 -20 -20 -20 -20 -12 -20 -20 -20 -20 -20 -20 -20 -20 -20 -20 -20 -20 -20 -20 -20 -20 -20 -20 -20 -20 -20 -20 -20 -20 -20 -20 -20 -20 -20 -20 -18 -20 -20
16 16 14 11 2 -11 13 2 -12 -20 -20 -20 -20 -20 -20 -20 -20 -20 -20 -20 -20 -20 -20 -20 -20 -20 -15 -20 -20 -20 -20 -20 -20 -20 -20 -20 -20 -20 -20 -20 -20 -20 -20 -20 -3 -18 -20
16 13 16 15 10 9 3 1 1 -20 -20 -20 -20 -20 -20 -9 -20 -20 -20 -20 -20 -20 -20 -20 -20 -20 -20 -20 -20 -20 -20 -20 -20 -20 -20 -20 -20 -20 -20 -20 -20 -20 -20 -20 -20 -20 -14
6 14 6 13 16 6 9 6 -2 -0 -20 -20 -20 -20 -20 12 13 -19 -15 -20 -20 -20 -20 -20 -20 -20 -20 -20 -20 -20 -20 -20 -20 -20 -20 -20 -20 -20 -20 -20 -20 -20 -20 -20 -20 -20 -14
6 -20 9 13 5 15 15 10 10 8 2 -20 -20 -20 -20 3 17 -10 -20 -20 -20 -20 -20 -20 -20 -20 -20 -20 -20 -20 -20 -20 -20 -20 -20 -20 -20 -20 -20 -20 -20 -20 -20 -20 -20 -20 -20
-13 6 -14 5 20 2 12 15 14 11 9 5 -20 -20 -20 -16 22 -15 -20 -20 -20 -18 -20 -15 -20 -20 -20 -20 -20 -20 -20 -20 -20 -20 -20 -20 -20 -20 -20 -20 -20 -20 -20 -20 -20 -20 -20
-20 -5 -20 -4 14 14 9 7 17 9 14 10 -20 -20 -20 9 20 -2 -20 -20 -20 -9 -20 2 -11 -15 -20 -20 -20 -20 -20 -20 -20 -20 -20 -20 -20 -20 -20 -20 -20 -20 -20 -20 -20 -20 -20
-7 -6 -20 -20 0 -3 19 5 10 12 15 13 -5 -20 -20 14 11 -20 -20 -20 -20 -5 -19 6 -8 4 0 -20 -20 -20 -20 -20 -20 -20 -20 -20 -20 -20 -20 -20 -20 -20 -20 -20 -20 -20 -20
-20 -20 -20 -20 -20 -9 3 13 2 11 12 15 9 -20 -18 21 -20 -20 -20 -20 -20 -20 -20 -20 -17 -16 -20 -20 -20 -20 -20 -20 -20 -20 -20 -20 -20 -20 -20 -20 -20 -20 -20 -20 -20 -20 -20
4 -12 -20 -20 -20 -20 4 14 8 9 14 14 14 -16 -12 12 -11 -20 -20 -20 -20 -20 -20 -20 -20 -20 -20 -20 -20 -20 -20 -20 -20 -20 -20 -20 -20 -20 -20 -20 -20 -20 -20 -20 -20 -20 -20
7 9 14 -20 -20 -20 -15 14 20 10 13 13 16 5 -9 19 -12 -20 -7 -20 -8 -20 -20 -20 -20 -20 -20 -20 -20 -20 -20 -20 -20 -20 -20 -20 -20 -20 -20 -20 -20 -20 -20 -20 -20 -20 -20
11 8 12 11 -20 -20 -18 -19 13 23 12 15 16 12 -16 11 -7 -20 -20 12 -17 -20 -20 -20 -20 -20 -20 -20 -20 -20 -20 -20 -20 -20 -20 -20 -20 -20 -20 -20 -20 -20 -20 -20 -20 -20 -20
13 16 8 12 1 -20 -20 -20 -17 31 12 15 15 -5 -7 -19 -3 -17 10 12 -7 -20 -9 -20 -10 -20 -20 -20 -20 -20 -20 -20 -20 -20 -20 -20 -20 -20 -20 -20 -20 -20 -20 -20 -20 -20 -20
5 13 14 12 10 -12 -20 -20 -1 23 21 17 11 8 -4 -20 -19 3 10 -20 -15 -20 -20 3 -14 -20 -20 -20 -20 -20 -20 -20 -20 -20 -20 -20 -20 -20 -20 -20 -20 -20 -20 -20 -20 -20 -20
15 13 16 17 18 6 -3 -20 1 14 30 18 22 16 -18 10 21 14 -4 -8 -18 -20 -20 11 -0 -11 -20 -20 -20 -20 -20 -20 -20 -20 -20 -20 -20 -20 -20 -20 -20 -20 -20 -20 -20 -20 -20
26 21 15 16 17 15 15 -20 -18 -10 30 6 20 19 -17 -13 19 13 -2 -20 -20 -20 2 -10 -20 -20 -20 -20 -20 -20 -20 -20 -20 -20 -20 -20 -20 -20 -20 -20 -20 -20 -20 -20 -20 -20 -20
28 20 21 22 22 23 24 -18 -13 14 20 24 13 17 31 -20 10 -7 -12 0 -20 -11 15 0 -20 -20 -20 -20 -20 -20 -20 -20 -20 -20 -20 -20 -20 -20 -20 -20 -20 -20 -20 -20 -20 -20 -20
-4 22 13 27 23 26 25 -3 -10 20 26 29 19 21 26 25 -20 -20 -0 -9 -20 -14 5 -4 -20 -20 -20 -20 -20 -20 -20 -20 -20 -20 -20 -20 -20 -20 -20 -20 -20 -20 -20 -20 -20 -20 -20
-20 -8 16 6 29 29 28 3 -8 21 9 31 16 22 7 14 -4 -20 -20 -20 -20 -15 5 -15 -20 -20 -20 -20 -20 -20 -20 -20 -20 -20 -20 -20 -20 -20 -20 -20 -20 -20 -20 -20 -20 -20 -20
5 7 16 11 29 26 30 16 28 12 26 33 22 14 2 6 -20 1 11 -4 -20 -20 13 -6 -20 -20 -20 -20 -20 -20 -20 -20 -20 -20 -20 -20 -20 -20 -20 -20 -20 -20 -20 -20 -20 -20 -20
16 7 12 16 24 29 33 16 37 27 24 30 15 -13 -20 -12 -16 0 -20 -20 -20 -19 4 -5 -20 -3 -20 -20 -20 -20 -20 -20 -20 -20 -20 -20 -20 -20 -20 20 -20 -20 -20 -20 -20 -20 -20
14 11 12 3 23 30 33 23 25 6 20 8 -20 -18 6 17 10 -20 -20 -20 -20 -19 7 -4 -15 3 -20 -8 -15 -20 -20 -20 -20 -20 -20 -20 -20 -20 -20 -20 -20 -20 -20 -20 -20 -20 -20
14 17 19 -18 30 32 33 24 -6 7 -18 -20 -20 -9 23 21 -6 8 -4 -20 -12 -20 0 10 5 5 2 -6 12 -15 -20 -20 -20 -20 -20 -20 -20 -20 -20 -20 -20 -20 -20 -20 -20 -20 -20
23 15 1 21 37 33 26 18 20 5 -8 -20 -20 -20 13 24 -3 -2 -14 -20 -20 -20 -13 6 12 7 2 -1 4 -20 -20 -20 -20 -20 -20 -20 -20 -20 -20 -20 -20 -20 -20 -20 -20 -20 -20
14 -0 34 34 32 31 6 8 14 5 13 -18 -20 -8 25 38 9 -14 6 -20 -20 -20 -20 -15 5 6 3 -20 -20 -20 -20 -20 -20 -20 -20 -20 -20 -20 -20 -20 -20 -20 -20 -20 -20 -20 -20
-20 28 33 30 32 17 2 2 13 15 17 -8 -20 13 32 28 18 -1 1 -20 -20 -20 -20 -20 5 -1 -17 -20 -20 -20 -20 -20 -20 -20 -20 -20 -20 -20 -20 -20 -20 -20 -20 -20 -20 -20 -20
32 28 27 30 16 7 5 -0 6 17 17 -20 -18 24 28 29 17 15 -18 -20 -20 -20 -20 -20 -19 -13 -20 -20 -20 14 -20 -14 -20 -20 -20 -20 -20 -20 -20 -20 -20 -20 -20 -20 -20 -20 -20

GFSGBSN_prec_radar_033.txt.gz
Reflectivity
16 16 17 13 -1 15 7 -9 -12 -20 -20 -20 -11 11 0 14 -4 -20 -20 -20 -20 -20 -20 -20 -20 -20 -20 -20 -20 -20 -20 -20 -20 -20 -20 -20 -20 -20 -20 -20 -20 -20 -20 -20 -20 -20 -20
14 13 14 12 16 -2 12 7 -20 -20 -20 -20 -20 -20 -20 2 10 -20 -20 -20 -20 -20 -20 -20 -20 -20 -20 -20 -20 -20 -20 -20 -20 -20 -20 -20 -20 -20 -20 -20 -20 -20 -20 -20 -20 -20 -20
18 17 14 16 17 10 8 -4 17 -3 -20 -20 -20 -20 -20 14 3 -19 -20 -20 -19 -20 -20 -20 -20 -20 -20 -20 -20 -20 -20 -20 -20 -20 -20 -20 -20 -20 -20 -20 -20 -20 -20 -20 -7 -20 -20
7 16 16 17 14 14 15 13 -5 15 1 -20 -20 -20 -20 6 14 11 -8 -20 -20 -20 -20 -20 -20 -20 -20 -20 -20 -20 -20 -20 -20 -20 -20 -20 -20 -20 -20 -20 -20 -20 -4 -11 16 10 -3
14 14 16 12 12 13 14 16 11 -10 13 4 -12 -20 -20 -20 -12 10 9 -20 -20 -20 -20 -20 -20 -20 -20 -20 -20 -20 -20 -20 -20 -20 -20 -20 -20 -20 -20 -20 -20 -20 -20 -20 -20 -14 -4
15 13 6 -8 15 13 15 10 12 12 6 6 5 -20 -20 -20 -20 3 -12 -20 -20 -20 -20 -12 -20 -20 -20 -20 -20 -20 -20 -20 -20 -20 -20 -20 -20 -20 -20 -20 -20 -20 -20 -20 -17 -20 -17
-20 -20 -11 12 15 14 18 16 14 10 15 1 -1 5 -20 -20 -20 -20 -11 -20 -20 -20 -20 -20 -20 -20 -20 -20 -20 -20 -20 -20 -20 -20 -20 -20 -20 -20 -20 -20 -20 -20 -20 -20 -20 -20 -20
8 -19 -20 -20 -20 2 9 18 10 15 11 7 -3 5 -20 -20 -19 10 -8 -20 -20 -20 -20 -20 -20 -20 -20 -20 -20 -20 -20 -20 -20 -20 -20 -20 -20 -20 -20 -20 -20 -20 -20 -20 -20 -20 -20
-20 -17 13 -20 -20 -20 -18 17 17 13 -6 12 11 4 -20 -20 5 -19 -20 -20 -20 -20 -20 -20 -20 -20 -20 -20 -20 -2 -20 -20 -20 -20 -20 -20 -20 -20 -20 -20 -20 -20 -20 -20 -20 -20 -20
6 4 -20 -20 -20 -20 -20 -16 15 17 12 6 9 9 -20 -20 -19 -20 -20 -20 -20 -20 -20 -20 -20 -20 -20 -20 -20 -9 -20 -20 -20 -20 -20 -20 -20 -20 -20 -20 -20 -20 -20 -20 -20 -20 -20
9 8 4 6 -18 -20 -20 -20 -19 13 18 14 9 12 -12 -20 -20 -20 -20 -20 -20 -20 -20 -20 -20 -20 -20 -20 -9 -16 -20 -20 -20 -20 -20 -20 -20 -20 -20 -20 -20 -20 -20 -20 -20 -20 -20
6 -5 -0 15 -10 -20 -20 -20 -20 -13 22 16 15 12 7 -20 -1 -20 -20 -20 -20 -20 -20 -20 -20 -20 -20 -20 -20 -20 -20 -20 -20 -20 -20 -20 -20 -20 -20 -20 -20 -20 -20 -20 -20 -20 -20
11 5 2 1 4 7 7 -20 -20 -20 8 26 16 16 10 -11 -10 -20 -20 -20 -18 -20 -20 -20 -20 -20 -20 -7 -18 -20 -20 -20 -20 -20 -20 -20 -20 -20 -20 -20 -20 -20 -20 -20 -20 -20 -20
7 7 -4 5 7 3 8 6 -20 -20 -10 21 21 18 11 -18 10 -20 -5 -20 -18 -20 -20 -20 -20 -13 -20 5 -20 -20 -20 -20 -20 -20 -20 -20 -20 -20 -20 -20 -20 -20 -20 -20 -20 -20 -20
8 10 10 3 4 15 11 3 -19 -20 -20 -16 24 11 11 9 5 -16 12 14 -20 -20 -20 -20 -20 9 9 -7 -20 -20 -20 -20 -20 -20 -20 -20 -20 -20 -20 -20 -20 -20 -20 -20 -20 -20 -20
12 8 12 10 8 6 4 13 2 -20 -20 -6 20 6 4 2 9 21 14 -20 -20 -20 -20 -20 -20 -11 -2 -18 -20 -20 -20 -20 -20 -20 -20 -20 -20 -20 -20 -20 -20 -20 -20 -20 -20 -20 -20
17 11 12 16 15 17 7 6 8 -20 -20 -20 17 13 -20 16 24 25 11 -12 -20 -20 -20 -20 -20 -19 16 7 -20 -20 -20 -20 -20 -20 -20 -20 -20 -20 -20 -20 -20 -20 -20 -20 -20 -20 -20
16 17 -9 18 20 16 15 11 24 -17 -20 21 38 6 -20 -20 21 26 -9 -20 -20 -20 -20 -20 -20 -16 8 11 -5 -20 -20 -20 -20 -20 -20 -20 -20 -20 -20 -20 -20 -20 -20 -20 -20 -20 -20
27 22 32 18 25 20 14 13 18 18 -15 11 36 17 -15 -20 20 6 -20 -17 -20 -20 -20 -20 -20 -18 -20 6 4 -20 -20 -20 -20 -20 -20 -20 -20 -20 -20 -20 -20 -20 -20 -20 -20 -20 -20
-20 20 34 33 28 19 21 20 23 27 -13 9 27 27 25 20 -13 -5 8 -9 -7 -20 -20 -20 -20 1 -20 -2 10 -20 -20 -20 -20 -20 -20 -20 -20 -20 -20 -20 -20 -20 -20 -20 -20 -20 -20
16 -6 -7 15 27 35 21 27 22 31 19 10 25 24 31 4 2 -17 -7 -20 -20 -20 -20 -20 -20 -5 -20 -20 -1 -16 -20 -20 -20 -20 -20 -20 -20 -20 -20 -20 -20 -20 -20 -20 -20 -20 -20
20 10 10 -20 23 28 30 31 19 34 24 16 31 -10 -20 0 -20 -6 -20 4 -20 -20 -20 -20 -20 -11 2 -19 -20 -20 -20 -20 -20 -20 -20 -20 -20 -20 -20 -20 -20 -20 -20 -20 -20 -20 -20
17 16 34 13 24 21 26 31 30 37 33 24 26 -20 -20 -20 -19 1 -20 3 6 -20 -20 -20 -20 20 12 5 8 1 -20 -20 -20 -20 -20 -20 -20 -20 -20 -20 -20 -20 -20 -20 -20 -20 -20
21 11 32 13 9 3 24 39 32 37 30 12 17 -20 -20 -4 13 -20 -19 -20 5 -20 -20 -20 -20 14 20 16 10 8 -20 -20 -20 -20 -20 -20 -20 -20 -20 -20 -20 -20 -20 -20 -20 -20 -20
17 23 12 19 15 10 17 41 27 35 23 0 -11 -20 13 -14 10 -1 -20 -20 3 5 -20 -20 -19 12 19 8 16 2 -0 -20 -20 -20 -20 -20 -20 -20 -20 -20 -20 -20 -20 -20 -20 -20 -20
16 17 14 15 13 8 13 40 29 21 26 7 -20 -20 -11 -18 22 12 6 -20 -20 5 6 -20 -15 13 23 16 -13 -7 -9 -4 -20 -20 -20 -20 -20 -20 -20 -20 -20 -20 -20 -20 -20 -20 -20
19 17 17 14 17 6 27 34 27 19 33 8 -20 -20 -16 5 3 22 16 -15 -20 -20 -9 -20 -10 8 16 4 -20 -20 -20 -20 -20 -20 -20 -20 -20 -20 -20 -20 -20 -20 -20 -20 -20 -20 -20
7 21 5 12 3 -1 17 28 20 18 17 3 -20 -20 -20 -2 -14 40 -11 23 -17 -20 -13 -20 -6 10 11 -3 -20 -20 -20 -20 -6 -20 -20 -20 -20 -20 -20 -20 -20 -20 -20 -20 -20 -20 -20
13 7 5 -1 -19 19 20 33 5 28 23 15 -4 8 -20 -20 19 27 19 22 -20 -20 -20 -20 -20 8 0 -15 -20 -20 -20 -20 -19 -20 -20 -20 -20 -20 -20 -20 -20 -20 -20 -20 -20 -20 -20

GFSGBSN_prec_radar_036.txt.gz
Reflectivity
16 11 8 11 9 11 12 8 10 -3 -20 -20 -20 -20 -20 -20 -20 -20 -5 -20 -20 -20 -20 -20 -20 -20 -20 -20 -20 -20 -20 -20 -20 -20 -20 -20 -20 -20 -20 -20 -20 -20 -20 -20 -20 -20 -20
-1 8 14 9 13 11 10 10 12 11 2 -20 -20 -20 -20 -20 -20 -20 -11 -20 -20 -20 -20 -20 -20 -20 -20 -20 -20 -20 -20 -20 -20 -20 -20 -20 -20 -20 -20 -20 -20 -20 -20 -20 -20 -20 -20
9 10 -9 15 14 7 13 12 11 11 5 7 -4 -20 -20 -20 -20 2 8 -20 -20 -20 -20 -20 -20 -20 -20 -20 -20 -20 -20 -20 -20 -20 -20 -20 -20 -20 -20 -20 -20 -20 -20 -20 -20 -14 -20
-5 11 8 10 2 17 8 7 11 8 7 -10 7 2 -20 -20 -20 -5 -20 -20 -20 -20 -18 -18 -20 -20 -20 -20 -20 -20 -20 -20 -20 -20 -20 -20 -20 -20 -20 -20 -20 -20 -20 -1 16 -19 -20
-20 -18 -17 12 8 10 3 10 6 14 10 8 12 10 -20 -20 -20 -20 -20 -20 -20 -20 -20 -17 -20 -20 -20 -20 -20 -20 -20 -20 -20 -20 -20 -20 -20 -20 -20 -20 -20 -20 6 -20 -20 -7 -20
-2 -10 -8 -20 -5 11 -11 8 9 11 12 2 7 7 -4 -20 -20 -20 -20 -20 -20 -20 -20 -20 -20 -20 -20 -20 -20 -20 -20 -20 -20 -20 -20 -20 -20 -20 -20 -20 -20 -20 -20 -20 2 -20 -20
-2 6 9 -20 -20 -20 -20 -1 8 14 11 8 8 4 9 -20 -20 -20 -20 -20 -20 -20 -20 -20 -20 -20 -20 -20 -20 -20 -20 -20 -20 -20 -20 -20 -20 -20 -20 -20 -20 -20 -20 -20 -20 -20 -20
-14 -20 -20 3 9 -11 -20 -15 -15 0 14 8 12 8 7 -20 -20 -2 -20 -20 -20 -20 -20 -20 -20 -20 -20 -20 -20 -20 -20 -20 -20 -20 -20 -20 -20 -20 -20 -20 -20 -20 -20 -20 -20 -20 -20
4 9 1 -20 -20 -2 -14 -20 -20 -20 14 16 10 10 10 -19 -20 1 -20 -20 -20 -20 -20 -20 -20 -20 -20 -20 -20 -20 -20 -20 -20 -20 -20 -20 -20 -20 -20 -20 -20 -20 -20 -20 -20 -20 -20
-18 -20 -7 10 11 -20 -20 -16 -20 -20 -19 15 7 10 10 -19 -19 -20 -20 -20 -20 -20 -20 -20 -20 -20 -20 -20 -20 -20 -20 -14 -20 -20 -20 -20 -20 -20 -20 -20 -20 -20 -20 -20 -20 -20 -20
-20 -20 -20 -8 -19 11 -15 -20 -20 -20 -20 -2 16 11 11 -14 -19 -10 -20 -20 -20 -6 -20 -20 -20 -20 -20 -20 -18 -20 -20 -16 -20 -20 -20 -20 -20 -20 -20 -20 -20 -20 -20 -20 -20 -20 -20
5 -14 -20 -3 -1 -10 -12 1 -20 -20 -18 -20 -7 21 11 13 -3 -20 -20 -20 -20 -20 -20 -20 -20 -20 -20 -20 -20 -20 -20 -20 -20 -20 -20 -20 -20 -20 -20 -20 -20 -20 -20 -20 -20 -20 -20
-5 -1 9 11 5 9 -3 3 16 -20 1 -20 -20 4 17 9 -20 -20 -20 -3 -15 -20 -20 -20 -20 -20 -20 -20 -20 -20 -20 -20 -20 -20 -20 -20 -20 -20 -20 -20 -20 -20 -20 -20 -20 -20 -20
-9 1 1 9 5 11 4 6 -8 3 12 -20 -20 15 -4 -17 -20 -20 15 22 -20 -20 -20 -20 -20 -20 -20 -20 -20 -20 -20 -20 -20 -20 -20 -20 -20 -20 -20 -20 -20 -20 -20 -20 -19 -20 -20
13 -14 -3 -0 6 10 10 9 1 -7 8 12 -20 3 23 -20 -20 -3 21 12 -20 -20 -20 -20 -20 -20 -20 -20 -20 -20 -20 -20 -20 -20 -20 -20 -20 -20 -20 -20 -20 -20 -20 -20 -20 -20 -20
12 18 -3 -8 -1 6 7 12 -10 17 -9 13 4 7 27 19 -20 9 25 15 -20 -20 -20 -20 -20 -20 -20 -20 -20 -20 -20 -20 -15 -20 -20 -20 -20 -20 -20 -20 -20 -20 -20 -20 -20 -20 -20
-15 8 16 5 4 4 7 17 15 15 10 -5 17 11 3 18 21 14 28 7 -20 -20 -20 -20 -20 -20 -20 -20 -20 -20 -19 8 9 -20 -20 -20 -20 -20 -20 -20 -20 -20 -20 -20 -20 -20 -20
19 19 12 3 7 11 15 14 15 20 24 20 11 11 22 17 19 9 8 -20 -20 -20 -20 -20 -20 -20 -20 -20 -20 -20 -20 -6 5 -20 -20 -20 -20 -20 -20 -20 -20 -20 -20 -20 -20 -20 -20
22 12 -20 -4 22 16 15 14 17 20 24 21 11 17 23 16 19 12 -20 -20 -20 -20 -20 -20 -20 -20 -20 -20 -20 -20 -20 13 12 -18 -20 -20 -20 -20 -20 -20 -20 -20 -20 -20 -20 -20 -20
-15 -20 -20 -20 1 33 19 13 17 22 32 20 10 19 27 28 -16 9 -20 -20 -3 -20 -20 -20 -20 -20 -20 -20 -20 -8 -20 12 7 -16 -20 -20 -20 -20 -20 -20 -20 -20 -20 -20 -20 -20 -20
10 13 6 -14 -20 19 34 26 19 29 32 28 20 19 13 15 13 -20 -20 -20 -20 -2 -20 -20 5 -20 -20 -19 -20 -20 -19 7 9 -16 -20 -20 -20 -20 -20 -20 -20 -20 -20 -20 -20 -20 -20
14 12 -1 6 -20 -17 36 24 26 38 34 31 24 9 16 -20 1 -20 -20 -20 -20 -20 -20 -20 11 -20 -20 -20 8 8 15 1 9 -20 -20 -20 -20 -20 -20 -20 -20 -20 -20 -20 -20 -20 -20
14 19 13 15 17 11 -20 20 31 38 38 38 0 -20 11 -17 4 4 -20 -20 -20 -20 -20 -20 -20 -20 -15 -18 18 19 12 15 5 -19 -20 -20 -20 -20 -20 -20 -20 -20 -20 -20 -20 -20 -20
16 8 21 25 11 4 -18 38 36 33 38 38 -9 -5 10 6 20 -20 -20 -20 -7 -20 -20 -20 -20 -20 -20 2 26 16 9 17 -6 -15 -20 -20 -20 -20 -20 -20 -20 -20 -20 -20 -20 -20 -20
16 18 14 19 21 10 9 16 37 30 35 31 6 8 2 7 -16 2 -20 -20 -4 -16 -20 -20 -20 -20 -20 6 15 -4 -7 -7 -8 -10 -20 -20 -20 -20 -20 -20 -20 -20 -20 -20 -20 -20 -20
22 20 17 20 17 15 -19 15 36 35 35 25 -18 -11 12 -6 -20 -20 13 -11 -3 17 16 -20 -20 -20 -20 5 11 -12 -11 -10 19 1 -20 -20 -20 -20 -20 -20 -20 -20 -20 -20 -20 -20 -20
18 20 27 20 18 30 -20 2 38 40 21 16 -3 -20 2 -11 -19 -17 13 9 -8 -9 15 10 16 7 -19 -8 7 -20 -20 -19 11 -15 -20 -20 -20 -20 -20 -20 -20 -20 -20 -20 -20 -20 -20
21 15 25 12 18 -6 6 5 34 36 28 18 -20 -20 -8 16 1 16 25 -20 27 17 14 -18 18 11 3 5 2 -20 -20 -7 5 -20 -20 -20 -5 -20 -20 -20 -20 -20 -20 -20 -20 -20 -20
18 -17 10 8 12 11 -12 -0 28 41 33 3 -17 2 15 17 -13 -19 -20 -19 33 10 -20 23 -20 -20 -15 -8 -2 9 -9 -2 -3 -17 -1 15 -20 -20 -20 -20 -20 -20 -20 -20 -20 -20 -20